Strona główna
METAR-TAF:

METAR-TAF

Lotnisko :

Port lotniczy Windawa

Windawa, Łotwa

Szerokość geograficzna: 57-21-28N, Długość geograficzna: 021-32-39E, wysokość: 6 m

Aktualna obserwacja pogody

Raport powstał 23 minut temu, godzina 08:20 UTC
Wiatr 20 kt od południowo-południowy zachód
Temperatura 13°C
Wilgotność 51%
Ciśnienie 1022 hPa
Widzialność 10 km lub więcej
Brak chmur poniżej 1500 m i brak chmur cumulonimbus

METAR: EVVA 070820Z AUTO 21020KT CAVOK 13/03 Q1022

czas: 11:43 (08:43 UTC)


TAF: brakujący

Obserwacja i prognoza pogody dla ponad 4000 lotnisk (raport METAR i TAF).

Dostępne stacje oznaczono żółtymi i czerwonymi punktami na mapie.

Najedź kursorem aby zobaczyć nazwę stacji.

Kliknij aby zobaczyć obserwacje i prognozy pogody.

Aby zmienić mapę: kliknij na zielony przycisk z czarnym krzyżykiem, aby powiększyć; na zielony przycisk z myślnikiem, aby pomniejszyć; na zielone strzałki, aby przejść do map sąsiednich.


METAR-TAF: